Content
SEND FEEDBACK

Daily
Averages
Monthly
Summary
India

TRIVANDRUM, INDIA


Home > Asia > India
Elevation: 205 feet     Latitude: 08 29N     Longitude: 076 57E

WEATHER
 
SELECT A DAY
Number of Records: 119,507;   Date Range: 7/1/96 - 12/20/14
 
SHARE

PRINT THIS DATA

[ ← Previous Day ]
WEATHER ALMANAC - APRIL 4, 2013
[ Next Day → ]
[ °C ]   °F
Weather ElementAverageHighLow
Temperature86.3 °F93.2 °F (4:10 pm)82.4 °F (2:10 am)
Dewpoint76.8 °F78.8 °F (6:10 pm)75.2 °F (5:40 am)
Humidity73.7 %84 % (2:10 am)59 % (4:10 pm)
Barometer29.78 in29.83 in (7:40 am)29.68 in (4:10 pm)
Wind Speed7 mph13.8 mph (12:10 pm)
Weather ElementAverage
Visibility3.1 mi
Wind DirectionSSE (157.3 °)

Weather ElementTotal
Precipitation---
Cooling Degree Days22.8 (Base 65)
Growing Degree Days37.8 (Base 50)
Averaged from 26 records on April 4, 2013
WEATHER CONDITIONS BREAKOUT
WIND DIRECTION BREAKOUT
WEATHER BY HOUR - APRIL 4, 2013
[ °C ]   °F
Local TimeTemperatureDewpointHumidityBarometerVisibilityWind DirectionWind SpeedGust SpeedPrecipitationEventsConditions
2:10 AM82.4 °F77.0 °F84 %29.77 in2.5 miNNE (30°)2.3 mphHaze
3:10 AM82.4 °F77.0 °F84 %29.77 in2.5 miNNE (30°)2.3 mphHaze
3:40 AM82.4 °F77.0 °F84 %29.77 in2.5 miNorth (10°)2.3 mphHaze
4:10 AM82.4 °F77.0 °F84 %29.77 in2.5 miNorth (10°)2.3 mphHaze
4:40 AM82.4 °F77.0 °F84 %29.77 in2.5 miNNE (30°)3.5 mphHaze
5:10 AM82.4 °F77.0 °F84 %29.77 in2.5 miNE (40°)2.3 mphHaze
5:40 AM82.4 °F75.2 °F79 %29.77 in2.5 miCalmHaze
6:10 AM82.4 °F75.2 °F79 %29.80 in2.5 miNE (40°)3.5 mphHaze
6:40 AM82.4 °F77.0 °F84 %29.80 in2.5 miNNE (30°)3.5 mphHaze
7:10 AM82.4 °F77.0 °F84 %29.80 in3.1 miNE (50°)4.6 mphHaze
7:40 AM84.2 °F77.0 °F79 %29.83 in3.1 miNE (50°)6.9 mphHaze
8:10 AM86.0 °F77.0 °F74 %29.83 in3.1 miNNE (30°)5.8 mphHaze
8:40 AM87.8 °F77.0 °F70 %29.83 in3.7 miNE (40°)5.8 mphPartly Cloudy
9:10 AM87.8 °F77.0 °F70 %29.83 in3.7 miNNE (30°)6.9 mphPartly Cloudy
10:10 AM89.6 °F75.2 °F62 %29.83 in3.7 miWNW (300°)6.9 mphPartly Cloudy
11:10 AM89.6 °F75.2 °F62 %29.83 in3.7 miWest (280°)9.2 mphPartly Cloudy
12:10 PM91.4 °F77.0 °F63 %29.80 in3.7 miWNW (290°)13.8 mphScattered Clouds
12:40 PM91.4 °F77.0 °F63 %29.77 in3.7 miNW (310°)11.5 mphScattered Clouds
1:10 PM91.4 °F77.0 °F63 %29.77 in3.7 miWNW (300°)11.5 mphScattered Clouds
2:10 PM91.4 °F77.0 °F63 %29.71 in3.7 miWNW (300°)6.9 mphScattered Clouds
4:10 PM93.2 °F77.0 °F59 %29.68 in3.7 miNW (320°)13.8 mphThunderstormThunderstorm
5:10 PM89.6 °F77.0 °F66 %29.68 in3.7 miWNW (300°)13.8 mphPartly Cloudy
6:10 PM89.6 °F78.8 °F70 %29.71 in3.1 miNW (310°)13.8 mphHaze
7:10 PM87.8 °F77.0 °F70 %29.74 in3.1 miNW (320°)9.2 mphHaze
8:10 PM86.0 °F77.0 °F74 %29.77 in2.5 miNW (310°)11.5 mphHaze
9:10 PM84.2 °F77.0 °F79 %29.77 in2.5 miNNW (330°)9.2 mphHaze
Hourly data recorded from VOTV, located miles away from Trivandrum, India







STORIES FROM OUR PARTNERS